SCOUT A R/B, 2755

Orbit data source: Space-Track

SCOUT A R/B, 2755 is space debris in LEO originally from a launch on Fri, 14 Apr 1967 UTC launched from the Air Force Western Test Range (AFWTR). Debris objects in space refer to the collection of defunct objects orbiting the Earth. Examples of debris include non-operational satellites, rocket bodies, and fragments generated from explosions, collisions, or faulty payload assembly.

Loading next visibility...
Identifier
2755, 1967-034B
Orbit
LEO
Country
Flag of USUS
Related business
Manufacturer
ABL
Mission
Spacecraft
Bus & Motor
ALTAIR, Unknown motor
Mass
33 kg wet, 33 kg dry
Launch date (UTC)
1967-04-14 (59 years ago)
Launch vehicle
Unknown
Launch site
Air Force Western Test Range (AFWTR)
Object type
Payload
Rocket body
Debris
Shape & HBR
Unknown
Radar Cross Section
Medium (>0.1 m² and <1 m²)

Expand to show TLE details & history
Last TLE update: 12 hours ago

TLE from 12 hours ago
0 SCOUT A R/B
1  2755U 67034B   26177.60251439  .00000003  00000-0 -86732-5 0  9997
2  2755  90.2735  56.3906 0024424 329.2200  47.2910 13.54027960923318
Epoch: 2026-06-26T14:27Z
TLE epoch observation values (Epoch: 2026-06-26T14:27:37.243Z)
Latitude
16.70017°
Longitude
-75.32487°
Altitude
1,047.512 km
Speed
7.335 km/s
True Right ascension
03h 45m 14s
True Declination
16° 36' 34"
Sunlit
Object was in daylight at epoch
Visualization orbit readout
Latitude
Unknown
Longitude
Unknown
Altitude
Unknown
Speed
Unknown
Apparent Right ascension
Unknown
Apparent Declination
Unknown
Sunlit
N/A
Visualization observer readout
Local Sidereal Time
14:05:06
Azimuth
Unknown
Elevation
Unknown
Doppler factor
Unknown
Orbital elements
Apogee altitude
1,072.673 km
Perigee altitude
1,036.366 km
Semi-major axis
7,432.657 km
Eccentricity
0.00244
Inclination
90.2735°
RAAN
56.3906°
Arg. of periapsis
329.22°
True anomaly
47.49708°
Mean anomaly
47.291°
Eccentric anomaly
47.394°
Mean motion
3.38709 °/min
Orbital period
106.29 mins
BSTAR
-0.0000086732
Loading maneuver chart data...
Computing Atmospheric mass density...
Loading historical data...
Loading historical data...
Loading historical data...
Loading historical data...
Loading historical data...
Loading historical data...
Loading historical data...

Documentation

Showing up to 5 results
|